This demonstration page uses our WeatherBlox Daily Observations layout. Learn more.

Left ArrowRight Arrow

41.86663, -103.66717

Hourly Observations for January 18, 2016

Temp ( °F °C ) Dew Point ( °F °C ) Humidity (%) Winds ( mph kmh ) Pressure ( in mb ) Visibility ( mi km ) Precip ( " mm )
12:53 am 00:53 Clear with Mist and Fog 14 -10 11 -11.7 88 88 NNW 3 6 30.21 1023 6 10 N/A
1:53 am 01:53 Clear 11 -11.7 8 -13.3 88 88 NNE 3 6 30.20 1023 8 13 N/A
2:41 am 02:41 Partly Cloudy 10 -12.2 7 -13.9 87 87 N N/A 30.36 1028 8 13 N/A
2:50 am 02:50 Mostly Cloudy 10 -12 7 -14 85 85 N N/A 30.36 1028 8 13 N/A
2:53 am 02:53 Mostly Cloudy 11 -11.7 7 -13.9 84 84 N N/A 30.19 1022 8 13 N/A
3:01 am 03:01 Cloudy with Mist and Fog 11 -11.7 8 -13.3 88 88 N N/A 30.36 1028 2 2 N/A
3:09 am 03:09 Mostly Cloudy with Freezing Fog 13 -10.6 10 -12.2 88 88 SE 3 6 30.33 1027 0 0 N/A
3:17 am 03:17 Mostly Cloudy with Mist and Fog 13 -10.6 10 -12.2 88 88 SE 3 6 30.30 1026 1 1 N/A
3:43 am 03:43 Mostly Cloudy with Freezing Fog 14 -10 11 -11.7 88 88 ENE 3 6 30.27 1025 0 0 N/A
3:53 am 03:53 Mostly Cloudy with Freezing Fog 13 -10.6 11 -11.7 92 92 ENE 3 6 30.16 1021 0 0 N/A
4:28 am 04:28 Mostly Cloudy with Freezing Fog 12 -11 10 -12 92 92 ESE 6 9 30.30 1026 0 0 N/A
4:40 am 04:40 Mostly Cloudy with Freezing Fog 12 -11 10 -12 92 92 E 6 9 30.30 1026 1 1 N/A
4:53 am 04:53 Mostly Cloudy with Freezing Fog 13 -10.6 11 -11.7 92 92 ESE 5 7 30.16 1021 1 1 N/A
5:00 am 05:00 Mostly Cloudy with Freezing Fog 12 -11 10 -12 92 92 SE 7 11 30.30 1026 0 0 N/A
5:11 am 05:11 Mostly Cloudy with Freezing Fog 13 -10.6 10 -12.2 88 88 ESE 7 11 30.30 1026 1 1 N/A
5:53 am 05:53 Mostly Cloudy with Mist and Fog 13 -10.6 10 -12.2 88 88 E 6 9 30.16 1021 1 1 N/A
6:01 am 06:01 Cloudy with Mist and Fog 13 -10.6 10 -12.2 88 88 E 6 9 30.30 1026 2 3 N/A
6:09 am 06:09 Cloudy with Mist and Fog 13 -10.6 10 -12.2 88 88 E 5 7 30.30 1026 4 6 N/A
6:30 am 06:30 Cloudy 12 -11 10 -12 92 92 E 8 13 30.30 1026 7 11 N/A
6:53 am 06:53 Cloudy 14 -10 10 -12.2 84 84 ESE 9 15 30.15 1021 8 13 N/A
7:53 am 07:53 Sunny 13 -10.6 10 -12.2 88 88 ESE 8 13 30.14 1021 7 11 N/A
8:53 am 08:53 Sunny 15 -9.4 11 -11.7 84 84 E 10 17 30.12 1020 9 14 N/A
9:53 am 09:53 Sunny 16 -8.9 12 -11.1 84 84 ESE 6 9 30.13 1020 8 13 N/A
10:53 am 10:53 Mostly Sunny 19 -7.2 13 -10.6 77 77 ENE 3 6 30.10 1019 10 16 N/A
11:53 am 11:53 Mostly Cloudy 21 -6.1 15 -9.4 78 78 ESE 7 11 30.07 1018 10 16 N/A
12:53 pm 12:53 Cloudy 25 -3.9 17 -8.3 72 72 E 6 9 30.03 1017 10 16 N/A
1:53 pm 13:53 Mostly Cloudy 29 -1.7 20 -6.7 69 69 E 6 9 30.00 1016 10 16 N/A
2:53 pm 14:53 Partly Cloudy 30 -1.1 22 -5.6 72 72 SE 7 11 29.98 1015 10 16 N/A
3:53 pm 15:53 Partly Cloudy 30 -1.1 23 -5 75 75 SE 5 7 29.98 1015 10 16 N/A
4:53 pm 16:53 Cloudy 29 -1.7 22 -5.6 75 75 N N/A 30.00 1016 10 16 N/A
5:53 pm 17:53 Mostly Cloudy 29 -1.7 22 -5.6 75 75 E 3 6 30.01 1016 10 16 N/A
6:53 pm 18:53 Cloudy 30 -1.1 24 -4.4 79 79 N N/A 30.01 1016 10 16 N/A
7:53 pm 19:53 Cloudy 30 -1.1 24 -4.4 79 79 N N/A 30.02 1017 10 16 N/A
8:53 pm 20:53 Cloudy 31 -0.6 26 -3.3 82 82 N 3 6 30.03 1017 9 14 N/A
9:53 pm 21:53 Cloudy with Light Wintry Mix 32 undefined 27 -2.8 82 82 N N/A 30.04 1017 8 13 N/A
10:44 pm 22:44 Cloudy with Light Freezing Rain 34 1 28 -2 81 81 NNW 5 7 30.03 1017 5 8 N/A
10:53 pm 22:53 Cloudy with Light Freezing Rain 33 0.6 30 -1.1 89 89 NNW 5 7 30.06 1018 4 6 0.02 0.51
11:29 pm 23:29 Cloudy with Light Rain 35 1.7 33 0.6 93 93 NW 14 22 30.03 1017 6 10 0.02 0.51
11:39 pm 23:39 Cloudy with Light Rain 36 2.2 33 0.6 89 89 N 14 22 30.03 1017 7 11 0.03 0.76
11:53 pm 23:53 Cloudy with Light Snow 34 1.1 32 undefined 92 92 NNW 9 15 30.06 1018 5 8 0.04 1.02

Powered by AerisWeather